Time,TemperatureF,DewpointF,PressureIn,WindDirection,WindDirectionDegrees,WindSpeedMPH,WindSpeedGustMPH,Humidity,HourlyPrecipIn,Conditions,Clouds,dailyrainin,SoftwareType,DateUTC
2013-03-11 00:08:00,37.2,28.7,29.90,South,190,7.0,7.0,71,0.00,,,0.00,Wunderground v.1.15,2013-03-11 04:08:00,
2013-03-11 00:18:00,37.0,28.8,29.91,South,174,5.0,5.0,72,0.00,,,0.00,Wunderground v.1.15,2013-03-11 04:18:00,
2013-03-11 00:28:00,36.6,28.8,29.91,South,184,4.0,8.0,73,0.00,,,0.00,Wunderground v.1.15,2013-03-11 04:28:00,
2013-03-11 00:38:00,36.5,29.0,29.91,SSW,192,6.0,7.0,74,0.00,,,0.00,Wunderground v.1.15,2013-03-11 04:38:00,
2013-03-11 00:48:00,36.6,29.1,29.92,SSW,196,4.0,4.0,74,0.00,,,0.00,Wunderground v.1.15,2013-03-11 04:48:00,
2013-03-11 00:58:00,36.4,28.9,29.91,South,183,5.0,7.0,74,0.00,,,0.00,Wunderground v.1.15,2013-03-11 04:58:00,
2013-03-11 01:08:00,36.6,29.1,29.90,SSE,167,7.0,7.0,74,0.00,,,0.00,Wunderground v.1.15,2013-03-11 05:08:00,
2013-03-11 01:18:00,36.7,29.2,29.90,South,184,8.0,11.0,74,0.00,,,0.00,Wunderground v.1.15,2013-03-11 05:18:00,
2013-03-11 01:28:00,36.7,29.2,29.91,SSW,192,7.0,7.0,74,0.00,,,0.00,Wunderground v.1.15,2013-03-11 05:28:00,
2013-03-11 01:38:00,36.6,29.4,29.90,South,184,6.0,6.0,75,0.00,,,0.00,Wunderground v.1.15,2013-03-11 05:38:00,
2013-03-11 01:48:00,36.6,29.4,29.90,SSW,199,6.0,6.0,75,0.00,,,0.00,Wunderground v.1.15,2013-03-11 05:48:00,
2013-03-11 01:58:00,36.7,29.5,29.89,South,191,8.0,10.0,75,0.00,,,0.00,Wunderground v.1.15,2013-03-11 05:58:00,
2013-03-11 02:08:00,36.5,29.3,29.88,South,175,7.0,12.0,75,0.00,,,0.00,Wunderground v.1.15,2013-03-11 06:08:00,
2013-03-11 02:18:00,36.5,29.3,29.88,South,171,7.0,7.0,75,0.00,,,0.00,Wunderground v.1.15,2013-03-11 06:18:00,
2013-03-11 02:28:00,36.3,29.5,29.87,SSE,147,5.0,5.0,76,0.00,,,0.00,Wunderground v.1.15,2013-03-11 06:28:00,
2013-03-11 02:38:00,36.4,29.2,29.88,South,184,6.0,9.0,75,0.00,,,0.00,Wunderground v.1.15,2013-03-11 06:38:00,
2013-03-11 02:48:00,36.3,29.5,29.87,South,169,5.0,5.0,76,0.00,,,0.00,Wunderground v.1.15,2013-03-11 06:48:00,
2013-03-11 02:58:00,36.1,29.3,29.87,SSE,167,6.0,6.0,76,0.00,,,0.00,Wunderground v.1.15,2013-03-11 06:58:00,
2013-03-11 03:08:00,36.0,29.5,29.86,SSW,198,6.0,13.0,77,0.00,,,0.00,Wunderground v.1.15,2013-03-11 07:08:00,
2013-03-11 03:18:00,35.9,29.1,29.85,South,180,6.0,13.0,76,0.00,,,0.00,Wunderground v.1.15,2013-03-11 07:18:00,
2013-03-11 03:28:00,36.0,28.8,29.85,South,178,7.0,7.0,75,0.00,,,0.00,Wunderground v.1.15,2013-03-11 07:28:00,
2013-03-11 03:38:00,35.7,28.9,29.84,SSW,195,5.0,6.0,76,0.00,,,0.00,Wunderground v.1.15,2013-03-11 07:38:00,
2013-03-11 03:48:00,35.6,28.8,29.84,SSW,211,6.0,6.0,76,0.00,,,0.00,Wunderground v.1.15,2013-03-11 07:48:00,
2013-03-11 03:58:00,35.6,28.8,29.84,SSW,193,5.0,5.0,76,0.00,,,0.00,Wunderground v.1.15,2013-03-11 07:58:00,
2013-03-11 04:08:00,35.3,28.8,29.83,SSW,198,5.0,12.0,77,0.00,,,0.00,Wunderground v.1.15,2013-03-11 08:08:00,
2013-03-11 04:18:00,35.4,28.6,29.83,SSW,208,4.0,4.0,76,0.00,,,0.00,Wunderground v.1.15,2013-03-11 08:18:00,
2013-03-11 04:28:00,35.3,28.2,29.83,SSE,155,2.0,2.0,75,0.00,,,0.00,Wunderground v.1.15,2013-03-11 08:28:00,
2013-03-11 04:38:00,35.3,28.5,29.83,SSE,165,1.0,2.0,76,0.00,,,0.00,Wunderground v.1.15,2013-03-11 08:38:00,
2013-03-11 04:48:00,35.1,28.3,29.83,South,173,3.0,3.0,76,0.00,,,0.00,Wunderground v.1.15,2013-03-11 08:48:00,
2013-03-11 04:58:00,35.1,28.6,29.83,SSW,194,4.0,5.0,77,0.00,,,0.00,Wunderground v.1.15,2013-03-11 08:58:00,
2013-03-11 05:08:00,35.0,28.5,29.82,South,182,5.0,5.0,77,0.00,,,0.00,Wunderground v.1.15,2013-03-11 09:08:00,
2013-03-11 05:18:00,34.9,28.4,29.82,SSW,192,2.0,2.0,77,0.00,,,0.00,Wunderground v.1.15,2013-03-11 09:18:00,
2013-03-11 05:28:00,34.8,28.6,29.83,South,169,2.0,3.0,78,0.00,,,0.00,Wunderground v.1.15,2013-03-11 09:28:00,
2013-03-11 05:38:00,35.0,29.1,29.83,South,178,4.0,4.0,79,0.00,,,0.00,Wunderground v.1.15,2013-03-11 09:38:00,
2013-03-11 05:48:00,35.0,29.1,29.85,South,190,2.0,2.0,79,0.00,,,0.00,Wunderground v.1.15,2013-03-11 09:48:00,
2013-03-11 05:58:00,35.1,28.9,29.85,South,191,1.0,1.0,78,0.00,,,0.00,Wunderground v.1.15,2013-03-11 09:58:00,
2013-03-11 06:08:00,35.0,28.8,29.85,South,184,0.0,8.0,78,0.00,,,0.00,Wunderground v.1.15,2013-03-11 10:08:00,
2013-03-11 06:18:00,34.9,29.0,29.84,South,188,2.0,8.0,79,0.00,,,0.00,Wunderground v.1.15,2013-03-11 10:18:00,
2013-03-11 06:28:00,34.7,29.2,29.84,South,186,3.0,5.0,80,0.00,,,0.00,Wunderground v.1.15,2013-03-11 10:28:00,
2013-03-11 06:38:00,34.7,29.2,29.85,South,186,4.0,4.0,80,0.00,,,0.00,Wunderground v.1.15,2013-03-11 10:38:00,
2013-03-11 06:48:00,34.7,28.9,29.85,ESE,122,1.0,1.0,79,0.00,,,0.00,Wunderground v.1.15,2013-03-11 10:48:00,
2013-03-11 06:58:00,34.7,29.2,29.85,SSE,157,1.0,1.0,80,0.00,,,0.00,Wunderground v.1.15,2013-03-11 10:58:00,
2013-03-11 07:08:00,34.5,29.3,29.85,South,187,1.0,8.0,81,0.00,,,0.00,Wunderground v.1.15,2013-03-11 11:08:00,
2013-03-11 07:18:00,34.4,29.5,29.84,South,189,4.0,8.0,82,0.00,,,0.00,Wunderground v.1.15,2013-03-11 11:18:00,
2013-03-11 07:28:00,34.4,29.2,29.84,SSW,194,4.0,4.0,81,0.00,,,0.00,Wunderground v.1.15,2013-03-11 11:28:00,
2013-03-11 07:38:00,34.4,29.2,29.84,SSW,192,4.0,4.0,81,0.00,,,0.00,Wunderground v.1.15,2013-03-11 11:38:00,
2013-03-11 07:48:00,34.6,29.7,29.84,SSW,192,3.0,4.0,82,0.00,,,0.00,Wunderground v.1.15,2013-03-11 11:48:00,
2013-03-11 07:58:00,34.6,29.7,29.84,SSW,193,7.0,7.0,82,0.00,,,0.00,Wunderground v.1.15,2013-03-11 11:58:00,
2013-03-11 08:08:00,34.6,29.7,29.84,South,176,6.0,8.0,82,0.00,,,0.00,Wunderground v.1.15,2013-03-11 12:08:00,
2013-03-11 08:18:00,34.6,29.7,29.84,South,184,6.0,6.0,82,0.00,,,0.00,Wunderground v.1.15,2013-03-11 12:18:00,
2013-03-11 08:28:00,34.7,29.8,29.84,South,169,5.0,5.0,82,0.00,,,0.00,Wunderground v.1.15,2013-03-11 12:28:00,
2013-03-11 08:38:00,34.9,29.7,29.83,South,177,5.0,6.0,81,0.00,,,0.00,Wunderground v.1.15,2013-03-11 12:38:00,
2013-03-11 08:48:00,35.1,29.9,29.83,South,184,6.0,7.0,81,0.00,,,0.00,Wunderground v.1.15,2013-03-11 12:48:00,
2013-03-11 08:58:00,35.2,30.0,29.83,South,173,5.0,5.0,81,0.00,,,0.00,Wunderground v.1.15,2013-03-11 12:58:00,
2013-03-11 09:08:00,35.5,29.9,29.84,South,180,3.0,3.0,80,0.00,,,0.00,Wunderground v.1.15,2013-03-11 13:08:00,
2013-03-11 09:18:00,35.8,30.2,29.83,SSE,167,1.0,12.0,80,0.00,,,0.00,Wunderground v.1.15,2013-03-11 13:18:00,
2013-03-11 09:28:00,36.2,30.3,29.83,SE,144,1.0,1.0,79,0.00,,,0.00,Wunderground v.1.15,2013-03-11 13:28:00,
2013-03-11 09:38:00,36.8,30.6,29.83,SSE,157,3.0,6.0,78,0.00,,,0.00,Wunderground v.1.15,2013-03-11 13:38:00,
2013-03-11 09:48:00,37.4,30.8,29.83,South,175,3.0,3.0,77,0.00,,,0.00,Wunderground v.1.15,2013-03-11 13:48:00,
2013-03-11 09:58:00,38.0,31.1,29.83,SSE,166,5.0,5.0,76,0.00,,,0.00,Wunderground v.1.15,2013-03-11 13:58:00,
2013-03-11 10:08:00,38.5,30.9,29.83,South,185,5.0,12.0,74,0.00,,,0.00,Wunderground v.1.15,2013-03-11 14:08:00,
2013-03-11 10:18:00,38.4,30.8,29.83,South,173,6.0,6.0,74,0.00,,,0.00,Wunderground v.1.15,2013-03-11 14:18:00,
2013-03-11 10:28:00,38.6,30.7,29.83,SSW,202,6.0,6.0,73,0.00,,,0.00,Wunderground v.1.15,2013-03-11 14:28:00,
2013-03-11 10:38:00,38.8,30.9,29.83,South,180,6.0,11.0,73,0.00,,,0.00,Wunderground v.1.15,2013-03-11 14:38:00,
2013-03-11 10:48:00,38.8,30.9,29.83,SSW,209,7.0,7.0,73,0.00,,,0.00,Wunderground v.1.15,2013-03-11 14:48:00,
2013-03-11 10:58:00,39.3,30.7,29.82,South,186,7.0,11.0,71,0.00,,,0.00,Wunderground v.1.15,2013-03-11 14:58:00,
2013-03-11 11:08:00,39.4,31.1,29.82,SSE,165,9.0,9.0,72,0.00,,,0.00,Wunderground v.1.15,2013-03-11 15:08:00,
2013-03-11 11:18:00,39.9,31.3,29.83,SSE,166,8.0,8.0,71,0.00,,,0.00,Wunderground v.1.15,2013-03-11 15:18:00,
2013-03-11 11:28:00,40.4,31.0,29.82,South,173,5.0,5.0,69,0.00,,,0.00,Wunderground v.1.15,2013-03-11 15:28:00,
2013-03-11 11:38:00,41.0,30.5,29.82,South,174,4.0,4.0,66,0.00,,,0.00,Wunderground v.1.15,2013-03-11 15:38:00,
2013-03-11 11:48:00,40.9,30.4,29.82,SSE,167,4.0,4.0,66,0.00,,,0.00,Wunderground v.1.15,2013-03-11 15:48:00,
2013-03-11 11:58:00,41.1,30.2,29.82,SE,133,5.0,5.0,65,0.00,,,0.00,Wunderground v.1.15,2013-03-11 15:58:00,
2013-03-11 12:08:00,41.2,30.3,29.82,South,184,4.0,15.0,65,0.00,,,0.00,Wunderground v.1.15,2013-03-11 16:08:00,
2013-03-11 12:18:00,40.8,30.3,29.82,South,177,5.0,15.0,66,0.00,,,0.00,Wunderground v.1.15,2013-03-11 16:18:00,
2013-03-11 12:28:00,41.2,29.9,29.82,SSW,213,7.0,8.0,64,0.00,,,0.00,Wunderground v.1.15,2013-03-11 16:28:00,
2013-03-11 12:38:00,41.5,29.8,29.82,South,177,6.0,7.0,63,0.00,,,0.00,Wunderground v.1.15,2013-03-11 16:38:00,
2013-03-11 12:48:00,41.6,29.9,29.82,South,188,4.0,10.0,63,0.00,,,0.00,Wunderground v.1.15,2013-03-11 16:48:00,
2013-03-11 12:58:00,41.5,29.8,29.82,SSE,153,4.0,4.0,63,0.00,,,0.00,Wunderground v.1.15,2013-03-11 16:58:00,
2013-03-11 13:08:00,41.5,29.8,29.81,SE,144,3.0,13.0,63,0.00,,,0.00,Wunderground v.1.15,2013-03-11 17:08:00,
2013-03-11 13:18:00,41.2,29.5,29.81,South,173,4.0,4.0,63,0.00,,,0.00,Wunderground v.1.15,2013-03-11 17:18:00,
2013-03-11 13:28:00,41.3,29.6,29.81,South,189,8.0,10.0,63,0.00,,,0.00,Wunderground v.1.15,2013-03-11 17:28:00,
2013-03-11 13:38:00,41.6,29.5,29.81,SSW,201,9.0,9.0,62,0.00,,,0.00,Wunderground v.1.15,2013-03-11 17:38:00,
2013-03-11 13:48:00,41.9,29.8,29.80,South,184,8.0,8.0,62,0.00,,,0.00,Wunderground v.1.15,2013-03-11 17:48:00,
2013-03-11 13:58:00,41.4,29.7,29.80,South,176,8.0,8.0,63,0.00,,,0.00,Wunderground v.1.15,2013-03-11 17:58:00,
2013-03-11 14:08:00,41.6,29.9,29.79,South,176,8.0,14.0,63,0.00,,,0.00,Wunderground v.1.15,2013-03-11 18:08:00,
2013-03-11 14:18:00,41.3,30.0,29.79,South,182,8.0,14.0,64,0.00,,,0.00,Wunderground v.1.15,2013-03-11 18:18:00,
2013-03-11 14:28:00,41.4,30.1,29.79,South,177,6.0,8.0,64,0.00,,,0.00,Wunderground v.1.15,2013-03-11 18:28:00,
2013-03-11 14:38:00,41.5,29.8,29.79,SSE,153,6.0,6.0,63,0.00,,,0.00,Wunderground v.1.15,2013-03-11 18:38:00,
2013-03-11 14:48:00,41.9,29.8,29.79,SSE,166,6.0,6.0,62,0.00,,,0.00,Wunderground v.1.15,2013-03-11 18:48:00,
2013-03-11 14:58:00,41.9,29.8,29.78,South,185,5.0,7.0,62,0.00,,,0.00,Wunderground v.1.15,2013-03-11 18:58:00,
2013-03-11 15:18:00,42.4,29.1,29.78,SSW,205,5.0,5.0,59,0.00,,,0.00,Wunderground v.1.15,2013-03-11 19:18:00,
2013-03-11 15:28:00,43.1,29.3,29.78,SSW,210,5.0,6.0,58,0.00,,,0.00,Wunderground v.1.15,2013-03-11 19:28:00,
2013-03-11 15:38:00,43.0,29.6,29.77,SSW,196,6.0,12.0,59,0.00,,,0.00,Wunderground v.1.15,2013-03-11 19:38:00,
2013-03-11 15:48:00,43.0,29.2,29.77,SSE,165,8.0,8.0,58,0.00,,,0.00,Wunderground v.1.15,2013-03-11 19:48:00,
2013-03-11 15:58:00,43.0,29.2,29.76,South,176,8.0,8.0,58,0.00,,,0.00,Wunderground v.1.15,2013-03-11 19:58:00,
2013-03-11 16:08:00,43.2,29.0,29.77,SSW,196,7.0,14.0,57,0.00,,,0.00,Wunderground v.1.15,2013-03-11 20:08:00,
2013-03-11 16:18:00,43.6,28.9,29.76,South,189,7.0,7.0,56,0.00,,,0.00,Wunderground v.1.15,2013-03-11 20:18:00,
2013-03-11 16:28:00,43.6,29.4,29.76,SSW,194,4.0,4.0,57,0.00,,,0.00,Wunderground v.1.15,2013-03-11 20:28:00,
2013-03-11 16:38:00,43.8,27.8,29.76,SW,232,3.0,3.0,53,0.00,,,0.00,Wunderground v.1.15,2013-03-11 20:38:00,
2013-03-11 16:48:00,44.1,28.5,29.76,South,184,2.0,2.0,54,0.00,,,0.00,Wunderground v.1.15,2013-03-11 20:48:00,
2013-03-11 16:58:00,44.2,28.1,29.76,SSW,211,2.0,3.0,53,0.00,,,0.00,Wunderground v.1.15,2013-03-11 20:58:00,
2013-03-11 17:08:00,44.0,28.0,29.75,South,187,2.0,2.0,53,0.00,,,0.00,Wunderground v.1.15,2013-03-11 21:08:00,
2013-03-11 17:18:00,43.5,28.4,29.75,South,173,2.0,2.0,55,0.00,,,0.00,Wunderground v.1.15,2013-03-11 21:18:00,
2013-03-11 17:28:00,43.3,28.6,29.75,SSW,213,1.0,6.0,56,0.00,,,0.00,Wunderground v.1.15,2013-03-11 21:28:00,
2013-03-11 17:38:00,43.3,28.6,29.76,SSW,208,1.0,1.0,56,0.00,,,0.00,Wunderground v.1.15,2013-03-11 21:38:00,
2013-03-11 17:48:00,43.3,28.2,29.75,SSE,148,1.0,2.0,55,0.00,,,0.00,Wunderground v.1.15,2013-03-11 21:48:00,
2013-03-11 17:58:00,43.2,28.5,29.75,South,174,1.0,2.0,56,0.00,,,0.00,Wunderground v.1.15,2013-03-11 21:58:00,
2013-03-11 18:08:00,42.8,28.6,29.75,South,177,2.0,9.0,57,0.00,,,0.00,Wunderground v.1.15,2013-03-11 22:08:00,